Regional Weather Roundup
Issued by NWS Northern Indiana

Home | Current Version | Previous Version | Graphics & Text | Print | Product List | Glossary On
Versions: 1 2 3 4 5 6 7 8 9 10 11 12 13 14 15 16 17 18 19 20 21 22 23 24 25 26 27 28 29 30 31 32 33 34 35 36 37 38 39 40 41 42 43 44 45 46 47 48 49 50
000
ASUS43 KIWX 300510
RWRIWX

KIWX WEATHER ROUNDUP
NATIONAL WEATHER SERVICE NORTHERN INDIANA
100 AM EDT TUE JUN 30 2015

NOTE: "FAIR" INDICATES FEW OR NO CLOUDS BELOW 12,000 FEET WITH NO
SIGNIFICANT WEATHER AND/OR OBSTRUCTIONS TO VISIBILITY.

* THESE STATIONS ARE NOT UNDER NWS QUALITY CONTROL. THEY ALSO MAY NOT
  REPORT WEATHER SUCH AS PRECIPITATION OR FOG.

INZ001>027-300600-
NORTHERN INDIANA

CITY           SKY/WX    TMP DP  RH WIND       PRES   REMARKS
GARY*          CLEAR     66  66 100 CALM      29.80F FOG
VALPARAISO     CLOUDY    64  61  90 S3        29.82S
MICHIGAN CITY* CLEAR     63  63 100 S3        29.81S
LAPORTE*       PTCLDY    64  64 100 CALM      29.82S
KNOX*          CLEAR     61  61 100 CALM      29.80F
SOUTH BEND     PTCLDY    62  59  90 SE5       29.83S
GOSHEN         CLEAR     58  56  93 SE3       29.82F FOG
MONTICELLO*    CLOUDY    65  65 100 S3        29.81S
LOGANSPORT*    MOCLDY    61  59  94 CALM      29.83S FOG
ROCHESTER*     PTCLDY    64  64 100 SE5       29.82F
WARSAW*        FOG       57  57 100 CALM      29.83S VSB 1
ANGOLA*        CLOUDY    63  52  67 CALM      29.83R
FORT WAYNE     PTCLDY    59  58  96 CALM      29.83F FOG
HUNTINGTON*    PTCLDY    59  58  97 CALM      29.83S FOG
PERU/GRISSOM   CLEAR     63  61  95 SE3       29.82S
MARION*        PTCLDY    61  60  97 CALM      29.84S FOG

$$
INZ028>050-300600-
CENTRAL INDIANA

CITY           SKY/WX    TMP DP  RH WIND       PRES   REMARKS
LAFAYETTE      FOG       63  62  97 CALM      29.83R VSB 3/4
KOKOMO*        CLEAR     63  61  94 CALM      29.82S
MUNCIE*        CLOUDY    64  62  93 SE3       29.84S
INDIANAPOLIS   MOCLDY    66  62  87 SW6       29.83R

$$
MIZ043>046-050>051-056>058-064>065-071>073-077>080-300600-
SOUTHWEST LOWER MICHIGAN

CITY           SKY/WX    TMP DP  RH WIND       PRES   REMARKS
BATTLE CREEK   CLOUDY    65  57  75 S6        29.83F
BENTON HARBOR  CLEAR     60  57  89 SE6       29.81S
COLDWATER*     CLOUDY    61  58  91 CALM      29.83S
HILLSDALE*     CLOUDY    62  62 100 E3        29.83S
HOLLAND        CLEAR     60  57  89 S3        29.82S
GRAND RAPIDS   CLEAR     61  58  90 CALM      29.82F
KALAMAZOO      CLOUDY    63  57  81 S5        29.82F
STURGIS*       CLOUDY    61  59  94 S3        29.82S
THREE RIVERS*  CLOUDY    62  58  86 S3        29.83S

$$
OHZ001>008-015>018-024>025-300600-
NORTHWEST OHIO

CITY           SKY/WX    TMP DP  RH WIND       PRES   REMARKS
DEFIANCE       CLOUDY    63  60  90 CALM      29.83S
FINDLAY        CLOUDY    63  61  93 CALM      29.81F
TOLEDO EXPRESS CLOUDY    62  59  90 CALM      29.82S
TOLEDO METCALF CLOUDY    63  58  83 SE3       29.82F
LIMA           CLOUDY    62  60  93 CALM      29.83S FOG

$$
AND FOR LAKE MICHIGAN COASTAL AND OPEN LAKE BUOY OBSERVATIONS

STATION/POSITION TEMP    WIND        PRES    VSBY  WAVE
                 AIR SEA DIR/SP/G                  HT/PER
                 (F)     (DEG/KT/KT) (MB)    (MI)  (FT/S)
CALUMET HARBOR    65     210/  1/  2   N/A
MICHIGAN CITY     65     130/  7/  8   N/A
BURNS HARBOR      67     170/  5/  9 1009.8F
SAINT JOSEPH      62     170/  1/  6 1010.2F
4 MI NW BRIDGMAN  63 64                N/A           1
MICHIGAN CITY     65 65  180/ 10/ 12   N/A           1

$$
&&



USA.gov is the U.S. government's official web portal to all federal, state and local government web resources and services.